DW6119 Weather Reports


Display with metric or nautical units.
time (UTC)temp
F
wind
direction
speed
MPH
gust
MPH
rain 1hr
in
rain 24hr
in
rain mn
in
humidity
%
barometer
mb
20260503054905 57 66 2.0 7.0 0.00 0.00 0.00 59 1022.0
20260503053905 56 139 3.0 7.0 0.00 0.00 0.00 60 1022.0
20260503053405 56 76 2.0 7.0 0.00 0.00 0.00 61 1022.0
20260503052906 55 36 2.0 5.0 0.00 0.00 0.00 60 1022.0
20260503052404 55 69 1.0 3.0 0.00 0.00 0.00 60 1022.0
20260503051404 54 220 0.0 5.0 0.00 0.00 0.00 62 1022.0
20260503050905 54 102 2.0 5.0 0.00 0.00 0.00 63 1022.0
20260503050404 54 117 3.0 5.0 0.00 0.00 0.00 64 1022.3
20260503045905 53 148 0.0 2.0 0.00 0.00 0.00 64 1022.1
20260503045404 53 240 1.0 3.0 0.00 0.00 0.00 65 1022.0
20260503044905 53 117 0.0 3.0 0.00 0.00 0.00 65 1022.1
20260503044405 53 56 1.0 3.0 0.00 0.00 0.00 66 1022.0
20260503043904 53 114 0.0 1.0 0.00 0.00 0.00 67 1022.1
20260503043404 53 248 0.0 1.0 0.00 0.00 0.00 66 1022.0
20260503042904 54 238 1.0 1.0 0.00 0.00 0.00 63 1022.0
20260503042405 55 60 0.0 3.0 0.00 0.00 0.00 62 1021.9
20260503041904 55 239 1.0 3.0 0.00 0.00 0.00 60 1022.0
20260503041405 54 79 1.0 3.0 0.00 0.00 0.00 61 1022.0
20260503040904 54 76 0.0 2.0 0.00 0.00 0.00 62 1022.0
20260503040405 54 241 0.0 2.0 0.00 0.00 0.00 62 1022.0
20260503035906 54 101 0.0 2.0 0.00 0.00 0.00 61 1022.0
20260503035404 54 295 1.0 2.0 0.00 0.00 0.00 61 1021.8
20260503034905 54 209 0.0 2.0 0.00 0.00 0.00 62 1021.7
20260503033905 55 131 0.0 3.0 0.00 0.00 0.00 60 1021.9
20260503033404 55 95 1.0 7.0 0.00 0.00 0.00 60 1021.7
20260503032404 54 244 0.0 2.0 0.00 0.00 0.00 60 1022.0
20260503031404 53 270 0.0 1.0 0.00 0.00 0.00 63 1022.0
20260503030405 54 156 0.0 1.0 0.00 0.00 0.00 64 1022.0
20260503025906 54 114 0.0 1.0 0.00 0.00 0.00 63 1022.0
20260503025405 53 144 0.0 1.0 0.00 0.00 0.00 64 1022.0
20260503024905 52 106 0.0 1.0 0.00 0.00 0.00 65 1022.2
20260503024404 53 247 0.0 1.0 0.00 0.00 0.00 65 1022.4
20260503023904 53 213 0.0 2.0 0.00 0.00 0.00 64 1022.4
20260503022904 53 261 0.0 1.0 0.00 0.00 0.00 65 1022.3
20260503022405 53 251 1.0 1.0 0.00 0.00 0.00 65 1022.3
20260503021905 53 239 0.0 2.0 0.00 0.00 0.00 64 1022.2
20260503021404 53 241 0.0 2.0 0.00 0.00 0.00 64 1022.2
20260503020904 53 235 0.0 2.0 0.00 0.00 0.00 64 1022.0
20260503020405 53 263 0.0 2.0 0.00 0.00 0.00 66 1022.1
20260503015905 53 251 0.0 1.0 0.00 0.00 0.00 65 1022.3
20260503015405 54 249 0.0 1.0 0.00 0.00 0.00 63 1022.0
20260503014904 54 66 0.0 1.0 0.00 0.00 0.00 62 1022.0
20260503014406 54 103 0.0 2.0 0.00 0.00 0.00 61 1022.1
20260503013405 53 177 0.0 1.0 0.00 0.00 0.00 64 1022.0
20260503012904 53 219 0.0 1.0 0.00 0.00 0.00 63 1022.0
20260503012405 53 250 0.0 1.0 0.00 0.00 0.00 63 1022.0
20260503011904 53 194 0.0 1.0 0.00 0.00 0.00 63 1022.3
20260503011405 53 39 0.0 1.0 0.00 0.00 0.00 63 1022.1
20260503010904 54 1 0.0 0.0 0.00 0.00 0.00 63 1022.3
20260503010404 54 299 0.0 0.0 0.00 0.00 0.00 62 1022.1
20260503005904 54 40 0.0 1.0 0.00 0.00 0.00 62 1022.2
20260503005405 54 65 0.0 1.0 0.00 0.00 0.00 61 1022.4
20260503004905 54 339 0.0 1.0 0.00 0.00 0.00 61 1022.4
20260503003904 54 245 0.0 1.0 0.00 0.00 0.00 62 1022.4
20260503003405 54 244 0.0 1.0 0.00 0.00 0.00 62 1022.4
20260503002904 54 239 1.0 1.0 0.00 0.00 0.00 63 1022.4
20260503002405 54 202 0.0 1.0 0.00 0.00 0.00 63 1022.6
20260503001905 54 69 0.0 1.0 0.00 0.00 0.00 63 1022.7
20260503001404 54 69 0.0 1.0 0.00 0.00 0.00 63 1022.7
20260502235904 54 84 0.0 0.0 0.00 0.00 0.00 62 1022.7
20260502234904 55 85 0.0 0.0 0.00 0.00 0.00 61 1022.7
20260502234404 55 85 0.0 0.0 0.00 0.00 0.00 61 1022.7
20260502233405 55 84 0.0 0.0 0.00 0.00 0.00 61 1022.7
20260502231904 55 75 0.0 1.0 0.00 0.00 0.00 63 1022.7
20260502231404 55 79 0.0 1.0 0.00 0.00 0.00 62 1022.7
20260502230904 56 95 0.0 1.0 0.00 0.00 0.00 61 1022.7
20260502225940 56 110 0.0 0.0 0.00 0.00 0.00 60 1023.0
20260502224939 56 261 0.0 0.0 0.00 0.00 0.00 58 1023.0
20260502224438 56 260 0.0 0.0 0.00 0.00 0.00 58 1022.9
20260502223938 56 244 0.0 1.0 0.00 0.00 0.00 58 1023.0
20260502223438 56 179 0.0 1.0 0.00 0.00 0.00 58 1023.0
20260502222939 56 119 0.0 1.0 0.00 0.00 0.00 58 1023.0
20260502222437 56 119 0.0 0.0 0.00 0.00 0.00 59 1023.0
20260502221938 56 235 0.0 1.0 0.00 0.00 0.00 58 1023.0
20260502221438 56 83 0.0 1.0 0.00 0.00 0.00 59 1023.0
20260502215938 57 255 1.0 1.0 0.00 0.00 0.00 58 1022.8
20260502215438 57 26 0.0 0.0 0.00 0.00 0.00 58 1023.0
20260502214938 57 27 0.0 0.0 0.00 0.00 0.00 57 1022.8
20260502214439 58 321 0.0 0.0 0.00 0.00 0.00 56 1022.7
20260502213438 58 42 0.0 1.0 0.00 0.00 0.00 55 1022.7
20260502212938 58 166 0.0 1.0 0.00 0.00 0.00 55 1022.7
20260502212438 58 231 0.0 0.0 0.00 0.00 0.00 54 1022.7
20260502211938 58 79 0.0 1.0 0.00 0.00 0.00 55 1022.4
20260502211439 59 239 0.0 1.0 0.00 0.00 0.00 54 1022.4
20260502210938 59 223 0.0 1.0 0.00 0.00 0.00 53 1022.7
20260502210438 59 62 0.0 1.0 0.00 0.00 0.00 54 1022.7
20260502205937 58 150 0.0 1.0 0.00 0.00 0.00 53 1022.7
20260502205438 59 281 0.0 1.0 0.00 0.00 0.00 55 1022.7
20260502204938 59 67 0.0 1.0 0.00 0.00 0.00 54 1022.7
20260502204438 59 59 0.0 1.0 0.00 0.00 0.00 54 1022.7
20260502203939 60 258 0.0 1.0 0.00 0.00 0.00 53 1022.7
20260502203438 60 71 0.0 1.0 0.00 0.00 0.00 52 1022.7
20260502202440 60 57 0.0 1.0 0.00 0.00 0.00 52 1022.7
20260502201939 60 56 1.0 1.0 0.00 0.00 0.00 52 1022.7
20260502201438 61 221 0.0 1.0 0.00 0.00 0.00 51 1022.5
20260502200938 61 121 0.0 1.0 0.00 0.00 0.00 50 1022.6
20260502195915 61 102 0.0 1.0 0.00 0.00 0.00 50 1022.4
20260502194918 61 248 0.0 1.0 0.00 0.00 0.00 50 1022.4
20260502194415 62 250 1.0 1.0 0.00 0.00 0.00 50 1022.4
20260502193915 62 149 0.0 1.0 0.00 0.00 0.00 49 1022.0
20260502193415 62 64 1.0 1.0 0.00 0.00 0.00 50 1022.4
20260502192917 62 253 0.0 1.0 0.00 0.00 0.00 50 1022.4
20260502192417 62 214 0.0 1.0 0.00 0.00 0.00 49 1022.0
20260502191916 62 324 0.0 1.0 0.00 0.00 0.00 49 1022.2
20260502191415 63 83 0.0 2.0 0.00 0.00 0.00 48 1022.0
20260502190915 63 238 0.0 2.0 0.00 0.00 0.00 48 1022.0
20260502190416 62 109 1.0 2.0 0.00 0.00 0.00 48 1022.0
20260502185917 63 226 0.0 1.0 0.00 0.00 0.00 49 1022.1
20260502185416 63 238 0.0 1.0 0.00 0.00 0.00 48 1022.0
20260502184916 64 15 0.0 1.0 0.00 0.00 0.00 48 1021.9
20260502183915 64 106 0.0 1.0 0.00 0.00 0.00 46 1021.8
20260502182416 65 172 0.0 1.0 0.00 0.00 0.00 46 1021.7
20260502181415 65 148 0.0 1.0 0.00 0.00 0.00 47 1021.6
20260502180916 65 246 0.0 1.0 0.00 0.00 0.00 47 1021.7
20260502180416 65 183 0.0 1.0 0.00 0.00 0.00 47 1021.3
20260502170416 69 74 1.0 2.0 0.00 0.00 0.00 40 1021.3
20260502163915 71 204 0.0 2.0 0.00 0.00 0.00 39 1021.1
20260502162915 71 69 1.0 2.0 0.00 0.00 0.00 37 1021.3
20260502162415 71 258 0.0 2.0 0.00 0.00 0.00 37 1021.3
20260502161915 71 154 0.0 3.0 0.00 0.00 0.00 37 1021.3
20260502161420 71 92 0.0 3.0 0.00 0.00 0.00 37 1021.3
20260502160915 72 248 1.0 8.0 0.00 0.00 0.00 35 1021.3
20260502160416 72 234 2.0 8.0 0.00 0.00 0.00 35 1021.3
20260502151915 75 252 3.0 8.0 0.00 0.00 0.00 31 1021.7
20260502151415 76 251 5.0 7.0 0.00 0.00 0.00 31 1021.6
20260502150915 77 254 2.0 9.0 0.00 0.00 0.00 30 1021.3
20260502150416 77 249 3.0 9.0 0.00 0.00 0.00 30 1021.7
20260502130416 75 245 3.0 9.0 0.00 0.00 0.00 30 1023.0
20260502123416 75 282 5.0 9.0 0.00 0.00 0.00 29 1023.4
20260502122916 74 231 4.0 9.0 0.00 0.00 0.00 30 1023.7
20260502122418 74 247 5.0 9.0 0.00 0.00 0.00 29 1023.7
20260502121915 74 232 5.0 9.0 0.00 0.00 0.00 29 1023.5
20260502121416 75 229 3.0 9.0 0.00 0.00 0.00 29 1023.7
20260502120916 74 242 3.0 9.0 0.00 0.00 0.00 29 1023.7
20260502120416 75 269 2.0 9.0 0.00 0.00 0.00 29 1024.0
20260502115415 74 257 3.0 9.0 0.00 0.00 0.00 29 1024.0
20260502114917 74 234 5.0 9.0 0.00 0.00 0.00 29 1024.0
20260502113915 74 259 3.0 8.0 0.00 0.00 0.00 29 1024.3
20260502112915 73 254 3.0 12.0 0.00 0.00 0.00 30 1024.2
20260502112415 74 271 5.0 9.0 0.00 0.00 0.00 30 1024.4
20260502111915 74 218 3.0 8.0 0.00 0.00 0.00 29 1024.4
20260502110916 73 261 3.0 7.0 0.00 0.00 0.00 30 1024.6
20260502110416 74 256 3.0 8.0 0.00 0.00 0.00 31 1024.4
20260502105916 73 255 3.0 8.0 0.00 0.00 0.00 31 1024.5
20260502105416 73 233 4.0 8.0 0.00 0.00 0.00 31 1024.9
20260502104915 73 239 4.0 7.0 0.00 0.00 0.00 31 1024.9
20260502104416 73 235 3.0 8.0 0.00 0.00 0.00 31 1025.1
20260502103915 73 227 2.0 8.0 0.00 0.00 0.00 31 1025.1
20260502103415 72 242 2.0 8.0 0.00 0.00 0.00 31 1025.1
20260502101916 71 252 3.0 7.0 0.00 0.00 0.00 32 1025.6
20260502100916 71 262 2.0 5.0 0.00 0.00 0.00 32 1025.7
20260502100416 71 235 1.0 3.0 0.00 0.00 0.00 35 1025.8
20260502091417 65 53 1.0 2.0 0.00 0.00 0.00 45 1027.0
20260502090915 65 279 0.0 2.0 0.00 0.00 0.00 45 1026.8
20260502090417 65 31 0.0 2.0 0.00 0.00 0.00 45 1027.1
20260502071415 57 57 1.0 3.0 0.00 0.00 0.00 57 1028.8
20260502070916 57 18 1.0 3.0 0.00 0.00 0.00 57 1028.8
20260502070415 57 55 0.0 3.0 0.00 0.00 0.00 58 1028.9
20260502065916 56 42 1.0 3.0 0.00 0.00 0.00 59 1028.8
20260502065415 56 79 2.0 3.0 0.00 0.00 0.00 59 1029.1
20260502064915 55 38 1.0 3.0 0.00 0.00 0.00 60 1028.8
20260502064416 55 29 2.0 3.0 0.00 0.00 0.00 61 1029.1